Dewpoint
49 50 50 48 48 47 46 45 47 48 47 45 43 45 47 44 39 35 34 36 35 36 30 9 9 11 15 12 21 27 8 7 12 12 13 13 7 8 7 4 5 9 10 13 28
49 48 49 48 48 48 45 45 47 47 47 46 46 46 48 46 33 30 39 34 37 35 16 7 6 9 4 8 15 15 7 5 11 14 15 11 7 7 5 7 8 15 18 23 25
48 48 48 47 47 46 45 45 47 47 47 46 46 47 47 42 22 27 36 31 36 33 21 12 9 12 2 9 12 11 7 13 15 16 15 12 9 8 4 5 7 12 17 22 22
46 47 47 47 45 47 45 46 46 46 46 46 46 46 42 34 -4 32 29 28 32 25 15 11 11 3 5 5 11 6 11 16 18 14 11 9 12 10 7 5 11 13 18 22 21
46 46 47 46 46 48 47 46 47 46 45 45 45 43 29 22 22 28 24 24 21 18 16 10 8 6 5 9 7 6 8 11 12 10 11 12 8 8 10 12 13 14 16 20 22
44 45 47 46 48 45 47 46 46 46 45 45 44 38 25 12 27 17 17 19 20 19 19 17 10 10 10 10 6 9 9 11 12 12 14 10 11 14 10 14 13 14 15 21 20
46 46 46 47 48 48 47 47 46 45 45 45 42 30 19 19 19 17 18 18 19 19 17 20 19 9 10 7 13 13 7 11 11 13 13 11 8 8 12 16 14 14 15 19 19
45 44 45 47 47 46 47 46 46 44 45 45 41 21 14 20 18 14 15 16 20 18 18 21 18 14 11 13 11 12 16 5 14 13 15 11 8 9 12 13 13 15 15 17 18
45 42 43 45 45 46 47 46 45 44 45 44 30 22 13 20 13 13 17 16 19 20 19 23 21 16 17 9 7 11 7 11 11 15 14 10 9 10 15 14 13 13 15 16 17
46 42 44 43 44 48 47 46 45 43 41 36 26 13 16 12 13 16 16 17 17 17 12 21 24 13 17 17 9 8 9 10 7 11 14 10 9 11 12 14 13 13 13 15 16
45 43 46 44 46 48 46 42 26 23 28 12 13 16 17 15 17 14 15 15 15 16 5 15 10 7 8 20 10 13 8 5 5 8 10 9 10 10 12 13 13 14 14 13 15
47 44 47 45 48 48 42 32 21 19 13 23 18 16 16 16 11 13 15 9 10 5 14 12 9 17 12 7 4 2 2 2 7 8 7 7 8 9 10 10 11 12 14 14 15
48 43 47 45 48 46 40 34 30 26 15 19 15 15 14 14 14 12 13 11 10 7 10 8 12 12 9 7 5 4 4 7 9 7 7 8 12 12 13 10 10 12 15 15 15
47 44 48 48 43 43 41 36 30 23 11 16 16 14 14 13 12 17 16 10 7 8 10 10 11 8 7 5 7 5 9 9 7 8 13 8 13 14 12 11 11 10 12 14 15
46 45 49 44 35 38 30 31 28 24 17 18 16 16 15 9 13 13 15 10 5 10 7 5 9 8 7 10 12 9 10 8 5 3 4 6 10 12 10 11 12 12 10 14 16
47 46 46 40 33 31 31 30 25 21 18 14 13 11 9 13 14 13 11 12 12 10 11 9 11 10 13 15 13 13 12 13 12 9 12 10 10 12 12 12 9 11 11 13 16
45 48 44 38 26 31 30 26 20 18 17 13 12 11 8 11 12 10 9 6 6 3 4 9 8 12 14 11 11 8 9 14 13 12 12 11 7 11 13 14 12 10 12 13 17
43 47 44 33 32 31 27 22 14 18 17 14 13 11 8 10 11 11 8 5 8 11 7 3 3 10 13 12 11 4 8 15 11 11 12 10 10 11 15 15 17 17 17 15 15
43 43 42 40 32 30 22 14 16 17 19 12 11 9 8 9 9 10 9 6 7 11 4 3 7 15 16 17 15 10 8 13 12 8 10 12 11 12 14 13 14 15 17 15 15
41 40 36 36 33 25 18 13 15 24 15 13 13 12 11 9 8 9 8 11 7 10 18 13 10 14 14 15 13 11 12 10 10 10 7 8 8 8 10 11 13 14 14 15 16
37 32 33 34 29 21 11 12 15 23 15 14 16 14 13 9 9 9 9 11 11 13 17 17 13 12 13 12 12 11 9 8 11 11 7 4 5 13 10 12 13 14 16 15 17
38 19 34 32 23 21 15 15 20 20 19 16 18 18 14 11 10 9 9 11 16 16 8 16 15 11 12 11 12 12 11 10 11 9 8 9 9 16 17 18 19 17 19 17 17
36 29 33 31 21 19 19 18 20 22 19 18 18 18 18 14 11 10 11 15 19 15 12 15 12 10 13 15 13 11 11 10 10 10 9 10 9 16 15 15 16 17 18 18 18
33 27 29 30 27 21 19 17 15 22 22 20 18 18 18 18 15 14 13 17 22 19 23 18 13 10 6 8 13 12 10 11 11 11 12 12 11 14 15 15 16 15 15 17 15
36 30 29 25 26 26 22 19 16 15 23 23 20 19 17 15 18 17 19 19 18 20 24 17 14 13 13 16 13 12 12 11 11 13 12 13 13 14 15 16 18 21 19 18 16
34 32 28 25 25 26 25 20 18 18 21 21 19 20 19 16 15 13 19 19 17 20 22 20 15 15 16 16 15 14 14 13 12 13 13 14 14 18 19 19 19 19 20 19 18
41 37 30 26 24 25 23 22 20 19 20 21 23 21 21 22 20 21 25 26 22 18 20 19 18 19 16 18 18 17 18 16 14 13 13 13 15 18 19 20 20 21 23 22 22
Wind_Speed
10 8 7 8 6 5 5 5 4 4 5 5 5 8 11 13 7 7 11 9 11 17 15 7 6 5 5 6 6 2 6 8 8 13 8 7 5 0 2 5 1 2 6 6 22
7 7 5 6 5 6 6 6 4 4 5 5 6 7 9 10 4 15 8 14 14 15 7 9 5 7 6 5 6 6 5 6 2 6 11 11 5 10 5 5 3 5 9 15 16
6 5 5 5 5 6 6 5 4 3 4 4 5 6 9 6 1 5 15 17 15 13 2 2 3 3 6 6 8 5 4 8 3 6 9 10 7 4 7 8 10 15 17 14 12
4 3 3 5 6 6 6 5 4 3 2 3 4 7 8 2 5 4 16 17 13 9 1 3 4 4 6 6 4 8 7 3 5 5 6 8 6 4 10 2 6 18 21 15 14
4 4 4 6 6 5 6 5 4 3 2 2 4 8 3 6 3 7 14 14 7 5 7 4 4 5 7 6 4 10 5 6 6 6 7 6 4 4 10 9 8 17 16 17 14
3 4 3 5 5 6 5 5 4 3 1 2 4 5 2 3 4 9 9 10 14 8 8 9 4 8 10 6 6 5 10 9 3 3 2 2 2 2 4 12 12 12 16 16 16
2 3 5 5 5 6 6 5 4 3 1 1 4 3 6 4 3 5 9 6 7 5 6 6 1 5 5 8 5 7 6 4 2 2 1 1 6 10 4 8 16 18 14 15 14
1 5 6 7 6 7 5 5 4 2 0 2 5 3 3 3 2 5 7 5 9 7 5 5 9 11 5 9 6 4 4 4 1 3 1 1 3 4 10 11 11 13 18 17 15
3 5 6 8 8 8 6 6 4 2 1 2 3 3 2 5 2 3 6 4 5 5 8 4 6 6 3 7 4 5 3 3 1 2 2 1 4 3 6 13 13 13 18 19 16
5 5 6 9 10 9 9 8 6 4 2 2 3 1 2 0 1 2 4 5 6 3 3 7 7 5 4 3 7 7 5 3 3 1 1 7 22 16 9 9 16 17 17 20 21
6 5 7 12 13 12 11 8 6 3 4 1 1 3 3 1 4 5 4 3 4 7 2 5 3 8 8 4 3 7 6 5 1 3 3 8 21 29 17 17 20 21 22 22 24
7 6 8 13 14 12 4 3 3 2 6 0 6 5 2 1 3 3 4 2 3 3 2 3 4 3 9 7 6 5 4 3 1 2 3 9 26 31 21 18 20 23 25 25 18
7 9 10 14 14 5 1 3 1 2 4 1 2 3 3 3 3 1 3 2 3 4 3 4 2 7 5 6 7 2 3 3 1 3 2 10 14 11 4 4 6 10 13 17 27
5 11 14 18 7 3 3 2 3 2 2 4 4 1 2 3 3 2 3 2 3 5 5 2 4 5 6 4 2 5 1 4 3 2 5 5 12 8 7 15 13 12 13 16 22
6 12 15 9 9 7 2 4 2 1 3 5 4 1 3 4 6 4 4 2 5 4 3 3 7 5 4 2 2 4 6 6 5 4 4 2 5 10 5 14 19 17 17 16 21
9 12 12 3 2 1 5 5 2 2 7 6 4 5 6 2 2 3 2 6 3 4 6 3 1 2 3 7 5 15 8 8 6 3 8 4 8 9 8 6 3 3 14 17 20
7 9 8 4 3 4 5 4 4 6 3 6 6 7 5 6 4 4 6 8 9 7 9 2 3 2 6 10 4 4 5 2 4 4 12 1 7 16 17 10 3 4 9 15 19
9 6 3 2 3 6 3 3 8 3 6 4 5 9 8 9 4 6 6 7 9 4 6 14 7 12 5 3 7 8 4 8 8 7 4 2 12 10 9 4 9 15 8 14 20
8 2 2 4 6 3 4 7 9 8 9 15 6 6 8 6 4 6 10 7 13 22 13 12 4 2 4 2 1 7 11 2 4 2 5 7 9 17 19 21 14 14 14 17 23
7 7 4 9 9 5 3 8 6 3 10 7 13 10 13 12 11 13 13 8 7 22 3 7 3 2 2 2 4 4 6 5 2 7 12 8 9 17 9 17 15 13 21 20 20
5 5 1 11 5 3 10 12 7 7 9 10 11 8 6 11 14 11 6 5 9 10 5 7 4 1 3 13 17 8 6 3 3 5 9 10 10 14 19 17 10 18 19 20 22
6 5 1 0 10 5 11 8 5 7 9 8 4 6 14 16 14 15 17 9 14 20 15 10 5 10 10 1 1 3 9 15 14 11 7 3 20 7 13 10 11 16 12 16 19
8 4 1 1 14 14 5 7 7 7 10 10 12 11 8 14 8 15 14 3 19 20 19 19 8 6 3 1 1 10 11 9 3 2 19 17 14 3 9 14 13 11 11 11 15
6 7 2 5 3 9 12 12 14 10 12 8 7 6 6 11 15 8 12 6 13 16 6 18 12 16 29 11 10 10 19 26 20 18 15 39 24 7 9 14 14 12 15 13 11
12 10 9 14 20 19 14 8 25 17 13 15 7 18 16 15 16 17 7 4 2 8 6 17 20 17 15 5 12 14 20 32 37 41 25 36 37 31 27 26 23 20 24 18 18
15 11 4 3 5 28 25 22 19 14 13 15 24 20 27 33 25 19 20 11 14 5 13 5 17 9 18 9 13 16 27 31 39 33 42 38 44 7 19 19 23 34 28 24 26
10 5 16 19 13 20 22 28 23 23 14 20 22 23 23 29 23 14 10 12 11 17 23 13 12 9 38 9 7 18 46 24 21 26 29 35 48 16 27 27 40 41 24 27 30
Wind_Direction
119 121 134 143 157 154 153 136 128 99 81 75 46 33 25 18 30 41 45 341 332 336 339 323 27 20 46 69 40 92 84 141 160 167 162 167 148 35 85 128 95 40 148 158 142
113 135 136 152 161 156 169 150 131 102 73 51 33 19 11 0 49 59 346 347 338 346 359 25 22 17 59 40 24 58 101 150 127 146 158 161 170 161 157 156 180 91 94 120 142
109 123 141 155 172 179 175 156 146 106 64 51 25 7 347 349 50 354 337 344 338 342 276 324 337 44 66 35 14 40 104 145 98 106 128 145 146 168 162 204 203 181 161 151 153
159 154 168 170 189 186 172 168 152 132 82 43 13 349 336 360 161 304 339 342 341 348 74 2 39 56 69 81 26 95 58 89 139 111 120 156 143 195 202 238 211 174 160 162 170
171 178 191 195 190 178 174 162 157 147 113 33 1 347 8 53 49 319 345 356 13 32 51 39 66 107 104 97 78 85 117 68 101 105 111 133 199 244 241 207 124 154 165 176 176
184 187 197 209 190 176 168 166 160 152 127 17 351 335 31 100 281 329 351 11 23 44 41 37 82 110 91 70 63 97 108 115 108 124 92 191 220 350 259 196 187 164 178 180 181
144 199 196 204 187 169 167 169 160 150 139 352 356 36 61 123 298 347 25 18 14 47 71 29 49 78 126 102 130 127 96 100 105 146 117 52 252 238 222 157 198 203 187 182 188
164 177 180 187 186 177 163 163 141 116 67 359 359 52 97 319 315 1 344 11 21 42 74 47 73 87 60 121 56 75 70 154 156 154 343 307 250 195 177 173 196 201 195 190 189
165 164 171 181 180 170 157 138 117 112 80 352 12 59 127 326 35 350 21 38 356 26 37 64 67 78 81 109 84 30 181 190 144 191 331 73 271 207 181 205 221 211 199 193 187
154 169 179 172 171 159 145 132 122 95 8 309 62 48 7 210 56 22 359 33 43 7 40 43 55 87 78 141 211 192 181 199 201 352 270 274 266 252 234 212 227 222 210 197 195
147 165 171 168 163 159 132 114 92 76 46 66 63 104 131 110 38 33 4 17 23 53 113 21 143 197 191 148 107 135 136 158 134 11 281 264 278 280 260 250 243 231 223 208 204
154 154 156 159 159 136 107 164 193 143 142 78 102 85 123 173 92 28 6 62 55 136 80 76 211 154 113 111 116 111 140 206 26 29 332 321 290 285 271 252 235 234 224 213 192
170 154 155 154 144 110 171 217 207 153 97 139 153 141 170 156 74 73 31 68 91 140 159 167 131 133 118 127 143 98 169 177 206 332 29 326 287 279 304 240 220 221 221 204 195
189 159 149 138 127 167 245 245 163 146 108 175 196 15 108 150 64 7 25 94 62 156 136 124 139 141 126 154 138 194 26 114 79 25 261 11 290 266 270 273 254 233 213 208 194
191 166 162 162 143 169 203 145 137 57 254 138 152 49 95 124 123 23 2 45 122 119 125 187 167 144 152 135 125 148 93 94 84 91 343 217 247 268 283 259 259 235 214 208 195
159 171 141 94 95 195 132 118 82 114 247 167 134 156 132 101 82 97 76 56 94 100 66 97 35 73 108 63 85 138 89 59 59 73 263 222 212 275 219 230 248 270 207 200 191
164 174 156 143 193 152 130 111 141 209 141 186 176 166 157 158 146 154 161 174 166 155 201 89 160 122 134 99 57 96 122 281 285 195 242 81 194 253 267 236 250 304 231 207 193
166 157 165 144 151 136 89 117 207 212 187 119 122 136 181 161 183 162 150 203 226 154 136 183 225 179 174 197 179 169 182 198 245 228 273 68 236 245 258 238 224 257 270 210 199
159 112 178 210 150 97 119 209 211 202 159 151 123 162 207 197 170 163 200 218 211 191 189 182 216 80 49 125 153 182 205 142 96 74 289 236 274 284 273 266 243 233 224 218 205
152 169 224 167 148 109 168 232 239 174 130 162 194 181 189 185 179 190 193 209 223 194 154 184 169 7 145 106 49 171 147 141 177 231 250 250 264 240 251 250 231 213 215 220 212
135 173 304 156 116 142 209 221 251 218 165 176 206 174 191 181 190 194 216 227 204 177 156 153 186 133 144 206 189 153 196 195 190 197 237 266 252 222 235 243 233 234 226 226 223
160 199 60 226 176 201 209 202 219 219 200 213 177 177 186 179 190 207 209 229 167 147 173 197 128 194 198 245 197 206 210 179 212 226 223 243 252 227 239 255 247 253 235 236 235
172 134 303 161 203 214 240 235 237 203 198 197 212 208 186 187 212 206 206 225 166 169 176 168 210 212 257 279 282 217 206 207 138 88 219 229 256 312 250 253 239 250 263 237 227
142 185 193 219 231 216 196 221 222 218 218 189 198 155 160 210 223 225 211 206 192 202 207 175 184 206 232 224 145 193 207 208 205 227 228 233 245 232 220 237 244 252 254 254 235
180 214 184 197 223 217 197 222 218 217 216 210 229 208 192 220 221 226 203 204 200 217 188 186 243 218 242 213 187 206 206 205 210 224 223 250 236 226 237 246 257 254 261 246 237
185 182 173 201 175 201 215 227 220 208 196 215 225 212 216 232 223 234 217 205 217 175 184 190 242 210 257 204 211 246 234 212 212 222 233 247 256 211 225 247 253 252 251 246 243
195 161 191 202 187 183 215 219 223 212 237 231 223 232 227 233 234 253 197 195 213 200 194 192 210 201 253 186 183 261 242 208 209 215 217 229 245 224 251 238 246 250 241 246 252